星链-35453(STARLINK-35453)

导读

STARLINK-35453是美国SpaceX星链星座的成员,于2025年10月3日发射升空,属于低轨通信卫星。作为星链组网卫星,它旨在为全球提供高速低延迟互联网服务,覆盖偏远地区、支持移动网络接入,同时服务军事通信等特殊场景,进一步扩充星链星座的全球覆盖规模,强化星座通信能力。

基本信息
目录编号:
65878
目录名称:
STARLINK-35453
国际标识:
2025-223AA
轨道中心:
EARTH
卫星名称:
星链-35453
卫星全名:
星链-35453(STARLINK-35453)
卫星状态:
在轨 (已飞行253 天)
发射日期:
2025-10-03 UTC
国别 :
美国 (US)
星等 :
--
轨道信息
数据来源 国际轨道数据 AOE轨道数据
星历时间 2026-06-13T14:47:46+0800
5小时前
查看轨道信息
2026-06-09T07:00:00+0800
4天前
查看轨道信息
半长轴 6840.845km 6840.697km
偏心率 0.0000938 0.0001654
轨道倾角 53.157° 53.158°
近地点辐角 71.960° 41.710°
升交点赤经 209.286° 229.508°
平近点角 288.151° 175.415°
近地点 462.066km 461.428km
远地点 463.35km 463.692km
周期 93.848分钟 93.845分钟
每日圈数 15.343985 15.344483
详细信息
固有亮度:
5
最大亮度:
2.5
卫星平台:
Starlink V1.0
覆盖范围:
全球
运营商:
太空探索技术公司
运营商所在国:
美国
制造商(研发单位):
太空探索技术公司
制造商所在国:
美国
使用方式:
暂无
卫星简介
Starlink 计划是 SpaceX 推出的全球卫星互联网项目,通过发射低轨道卫星,为全球尤其是偏远地区提供高速、低延迟的互联网服务。自 2019 年起,Starlink 已部署数千颗卫星,旨在缩小全球数字鸿沟,推动互联网普及。该项目还为军事、航空等行业提供通信支持,带来广泛经济效益。
2D轨道图
3D轨道图
轨道高度分析图
轨道倾角分析图
轨道综合分析图
查看轨道综合分析图